Location: *
(51.1248°S, 108.4023°W)
Time: 14:07:31
(UTC+00:00)

ATLAS CENTAUR R/B - Visible Passes

Search period start: 22 October 2021 00:00
Search period end: 01 November 2021 00:00
Orbit: 459 x 683 km, 64.7° (Epoch: 15 October)

Date Brightness Start Highest point End Pass type
(mag) Time Alt. Az. Time Alt. Az. Time Alt. Az.
22 Oct 3.8 03:09:39 10° SSW 03:11:28 13° S 03:13:14 10° SE visible
22 Oct 2.7 04:48:11 10° SSW 04:51:34 27° SSE 04:52:19 25° SE visible
22 Oct 3.3 06:26:56 10° SW 06:28:26 21° WSW 06:28:26 21° WSW visible
23 Oct 3.7 03:11:30 10° SSW 03:13:35 14° SSE 03:15:37 10° SE visible
23 Oct 2.2 04:49:56 10° SSW 04:53:32 35° SE 04:54:00 34° SE visible
23 Oct 3.5 06:28:55 10° WSW 06:30:07 18° WSW 06:30:07 18° WSW visible
24 Oct 3.6 03:13:18 10° SSW 03:15:42 15° SSE 03:18:00 10° SE visible
24 Oct 1.7 04:51:43 10° SW 04:55:27 47° SE 04:55:42 46° SE visible
24 Oct 3.7 06:31:02 10° WSW 06:31:49 14° WSW 06:31:49 14° WSW visible
25 Oct 3.4 03:15:04 10° SSW 03:17:46 17° SSE 03:20:22 10° ESE visible
25 Oct 1.1 04:53:31 10° SW 04:57:20 66° SE 04:57:26 66° SE visible
25 Oct 3.9 06:33:21 10° WSW 06:33:32 11° WSW 06:33:32 11° WSW visible
26 Oct 3.1 03:16:48 10° SSW 03:19:48 21° SSE 03:22:41 10° ESE visible
26 Oct 0.9 04:55:21 10° SW 04:59:10 86° NW 04:59:10 86° NW visible
27 Oct 2.8 03:18:33 10° SSW 03:21:48 25° SSE 03:24:49 11° E visible
27 Oct 1.2 04:57:13 10° SW 05:00:56 58° NW 05:00:56 58° NW visible
28 Oct 2.4 03:20:17 10° SSW 03:23:47 31° SE 03:26:37 13° E visible
28 Oct 1.9 04:59:09 10° SW 05:02:42 39° WNW 05:02:44 39° NW visible
29 Oct 1.9 03:22:02 10° SSW 03:25:43 41° SE 03:28:26 15° ENE visible
29 Oct 2.5 05:01:12 10° WSW 05:04:23 27° WNW 05:04:33 27° NW visible
30 Oct 1.4 03:23:49 10° SW 03:27:36 57° SE 03:30:17 17° ENE visible
30 Oct 3.0 05:03:23 10° WSW 05:06:02 19° WNW 05:06:25 18° NW visible
31 Oct 1.0 03:25:37 10° SW 03:29:26 81° SE 03:32:11 17° NE visible
31 Oct 3.5 05:05:58 10° W 05:07:38 13° WNW 05:08:19 12° NW visible
